Time,TemperatureF,DewpointF,PressureIn,WindDirection,WindDirectionDegrees,WindSpeedMPH,WindSpeedGustMPH,Humidity,HourlyPrecipIn,Conditions,Clouds,dailyrainin,SoftwareType,DateUTC
2013-03-15 00:02:00,62.0,47.0,30.21,SSE,157,0.0,3.0,58,0.00,,,0.00,,2013-03-15 05:02:00,
2013-03-15 00:12:00,62.0,47.0,30.21,SSE,157,0.0,3.0,58,0.00,,,0.00,,2013-03-15 05:12:00,
2013-03-15 00:22:00,62.0,47.0,30.20,SSE,161,0.0,1.0,58,0.00,,,0.00,,2013-03-15 05:22:00,
2013-03-15 00:32:00,62.0,47.0,30.20,SSE,167,1.0,3.0,58,0.00,,,0.00,,2013-03-15 05:32:00,
2013-03-15 00:42:00,62.0,47.0,30.20,SSE,167,1.0,3.0,58,0.00,,,0.00,,2013-03-15 05:42:00,
2013-03-15 00:52:00,62.0,47.0,30.21,SSE,166,0.0,2.0,58,0.00,,,0.00,,2013-03-15 05:52:00,
2013-03-15 01:02:00,62.0,47.0,30.21,SSE,156,1.0,6.0,58,0.00,,,0.00,,2013-03-15 06:02:00,
2013-03-15 01:12:00,62.0,47.0,30.21,SSE,156,1.0,6.0,58,0.00,,,0.00,,2013-03-15 06:12:00,
2013-03-15 01:22:00,62.0,47.0,30.20,SSE,166,1.0,6.0,59,0.00,,,0.00,,2013-03-15 06:22:00,
2013-03-15 01:32:00,62.0,48.0,30.20,SSE,164,1.0,5.0,60,0.00,,,0.00,,2013-03-15 06:32:00,
2013-03-15 01:42:00,62.0,48.0,30.20,SSE,164,1.0,5.0,60,0.00,,,0.00,,2013-03-15 06:42:00,
2013-03-15 01:52:00,62.0,48.0,30.20,South,171,1.0,6.0,60,0.00,,,0.00,,2013-03-15 06:52:00,
2013-03-15 02:02:00,62.0,49.0,30.20,South,182,1.0,3.0,62,0.00,,,0.00,,2013-03-15 07:02:00,
2013-03-15 02:12:00,62.0,49.0,30.20,South,182,1.0,3.0,62,0.00,,,0.00,,2013-03-15 07:12:00,
2013-03-15 02:22:00,61.0,48.0,30.20,SSE,150,1.0,5.0,63,0.00,,,0.00,,2013-03-15 07:22:00,
2013-03-15 02:32:00,61.0,49.0,30.20,South,173,1.0,5.0,65,0.00,,,0.00,,2013-03-15 07:32:00,
2013-03-15 02:42:00,61.0,49.0,30.20,South,173,1.0,5.0,65,0.00,,,0.00,,2013-03-15 07:42:00,
2013-03-15 02:52:00,61.0,50.0,30.20,SSE,167,1.0,3.0,66,0.00,,,0.00,,2013-03-15 07:52:00,
2013-03-15 03:02:00,61.0,51.0,30.19,SSW,205,1.0,3.0,69,0.00,,,0.00,,2013-03-15 08:02:00,
2013-03-15 03:12:00,61.0,51.0,30.19,SSW,205,1.0,3.0,69,0.00,,,0.00,,2013-03-15 08:12:00,
2013-03-15 03:22:00,61.0,51.0,30.19,South,188,2.0,7.0,69,0.00,,,0.00,,2013-03-15 08:22:00,
2013-03-15 03:32:00,60.0,51.0,30.19,South,169,1.0,7.0,71,0.00,,,0.00,,2013-03-15 08:32:00,
2013-03-15 03:42:00,60.0,51.0,30.19,South,169,1.0,7.0,71,0.00,,,0.00,,2013-03-15 08:42:00,
2013-03-15 03:52:00,60.0,51.0,30.18,South,171,1.0,6.0,72,0.00,,,0.00,,2013-03-15 08:52:00,
2013-03-15 04:02:00,59.0,50.0,30.18,South,175,1.0,8.0,73,0.00,,,0.00,,2013-03-15 09:02:00,
2013-03-15 04:12:00,59.0,50.0,30.18,South,175,1.0,8.0,73,0.00,,,0.00,,2013-03-15 09:12:00,
2013-03-15 04:22:00,59.0,51.0,30.17,SSE,163,1.0,5.0,74,0.00,,,0.00,,2013-03-15 09:22:00,
2013-03-15 04:33:00,58.0,50.0,30.17,SSE,158,0.0,6.0,76,0.00,,,0.00,,2013-03-15 09:33:00,
2013-03-15 04:43:00,58.0,50.0,30.17,SSE,158,0.0,6.0,76,0.00,,,0.00,,2013-03-15 09:43:00,
2013-03-15 04:52:00,58.0,50.0,30.17,SSE,158,0.0,6.0,76,0.00,,,0.00,,2013-03-15 09:52:00,
2013-03-15 05:03:00,58.0,51.0,30.17,South,182,1.0,6.0,78,0.00,,,0.00,,2013-03-15 10:03:00,
2013-03-15 05:12:00,58.0,51.0,30.17,South,182,1.0,6.0,78,0.00,,,0.00,,2013-03-15 10:12:00,
2013-03-15 05:23:00,57.0,51.0,30.17,SSE,166,1.0,5.0,79,0.00,,,0.00,,2013-03-15 10:23:00,
2013-03-15 05:33:00,57.0,51.0,30.16,South,172,1.0,3.0,80,0.00,,,0.00,,2013-03-15 10:33:00,
2013-03-15 05:42:00,57.0,51.0,30.16,South,172,1.0,3.0,80,0.00,,,0.00,,2013-03-15 10:42:00,
2013-03-15 05:52:00,57.0,51.0,30.16,South,187,1.0,6.0,81,0.00,,,0.00,,2013-03-15 10:52:00,
2013-03-15 06:03:00,56.0,50.0,30.16,SSE,166,1.0,5.0,81,0.00,,,0.00,,2013-03-15 11:03:00,
2013-03-15 06:12:00,56.0,50.0,30.16,SSE,166,1.0,5.0,81,0.00,,,0.00,,2013-03-15 11:12:00,
2013-03-15 06:22:00,57.0,51.0,30.16,SW,227,2.0,5.0,81,0.00,,,0.00,,2013-03-15 11:22:00,
2013-03-15 06:32:00,57.0,51.0,30.16,SSE,163,2.0,9.0,80,0.00,,,0.00,,2013-03-15 11:32:00,
2013-03-15 06:42:00,57.0,51.0,30.16,SSE,163,2.0,9.0,80,0.00,,,0.00,,2013-03-15 11:42:00,
2013-03-15 06:52:00,57.0,51.0,30.16,South,171,1.0,5.0,79,0.00,,,0.00,,2013-03-15 11:52:00,
2013-03-15 07:02:00,57.0,51.0,30.16,SSE,168,1.0,6.0,80,0.00,,,0.00,,2013-03-15 12:02:00,
2013-03-15 07:12:00,57.0,51.0,30.16,SSE,168,1.0,6.0,80,0.00,,,0.00,,2013-03-15 12:12:00,
2013-03-15 07:23:00,57.0,51.0,30.16,SSW,196,2.0,6.0,79,0.00,,,0.00,,2013-03-15 12:23:00,
2013-03-15 07:32:00,57.0,51.0,30.16,South,172,1.0,6.0,79,0.00,,,0.00,,2013-03-15 12:32:00,
2013-03-15 07:42:00,57.0,51.0,30.16,South,172,1.0,6.0,79,0.00,,,0.00,,2013-03-15 12:42:00,
2013-03-15 07:52:00,57.0,51.0,30.16,SSE,155,2.0,6.0,80,0.00,,,0.00,,2013-03-15 12:52:00,
2013-03-15 08:02:00,57.0,51.0,30.16,South,189,2.0,6.0,81,0.00,,,0.00,,2013-03-15 13:02:00,
2013-03-15 08:12:00,57.0,51.0,30.16,South,189,2.0,6.0,81,0.00,,,0.00,,2013-03-15 13:12:00,
2013-03-15 08:22:00,57.0,51.0,30.16,South,177,1.0,5.0,81,0.00,,,0.00,,2013-03-15 13:22:00,
2013-03-15 08:32:00,57.0,52.0,30.16,South,184,0.0,5.0,82,0.00,,,0.00,,2013-03-15 13:32:00,
2013-03-15 08:42:00,57.0,52.0,30.16,South,184,0.0,5.0,82,0.00,,,0.00,,2013-03-15 13:42:00,
2013-03-15 08:52:00,57.0,51.0,30.16,South,175,1.0,9.0,81,0.00,,,0.00,,2013-03-15 13:52:00,
2013-03-15 09:02:00,58.0,52.0,30.16,South,180,2.0,6.0,80,0.00,,,0.00,,2013-03-15 14:02:00,
2013-03-15 09:12:00,58.0,52.0,30.16,South,180,2.0,6.0,80,0.00,,,0.00,,2013-03-15 14:12:00,
2013-03-15 09:22:00,59.0,52.0,30.16,SW,224,2.0,6.0,79,0.00,,,0.00,,2013-03-15 14:22:00,
2013-03-15 09:32:00,60.0,53.0,30.17,SSW,198,2.0,9.0,78,0.00,,,0.00,,2013-03-15 14:32:00,
2013-03-15 09:42:00,60.0,53.0,30.17,SSW,198,2.0,9.0,78,0.00,,,0.00,,2013-03-15 14:42:00,
2013-03-15 09:52:00,60.0,54.0,30.17,SSW,202,1.0,9.0,80,0.02,,,0.02,,2013-03-15 14:52:00,
2013-03-15 10:02:00,61.0,54.0,30.17,SSW,194,3.0,9.0,77,0.02,,,0.02,,2013-03-15 15:02:00,
2013-03-15 10:13:00,61.0,54.0,30.17,SSW,194,3.0,9.0,77,0.02,,,0.02,,2013-03-15 15:13:00,
2013-03-15 10:22:00,61.0,53.0,30.17,SW,216,3.0,9.0,75,0.02,,,0.02,,2013-03-15 15:22:00,
2013-03-15 10:33:00,62.0,54.0,30.17,WSW,237,2.0,12.0,74,0.02,,,0.02,,2013-03-15 15:33:00,
2013-03-15 10:42:00,63.0,54.0,30.17,WSW,256,1.0,7.0,73,0.00,,,0.02,,2013-03-15 15:42:00,
2013-03-15 10:52:00,63.0,54.0,30.17,WSW,256,1.0,7.0,73,0.00,,,0.02,,2013-03-15 15:52:00,
2013-03-15 11:02:00,65.0,55.0,30.16,SSW,200,1.0,7.0,69,0.00,,,0.02,,2013-03-15 16:02:00,
2013-03-15 11:12:00,66.0,55.0,30.16,WSW,246,2.0,9.0,68,0.00,,,0.02,,2013-03-15 16:12:00,
2013-03-15 11:22:00,66.0,55.0,30.16,WSW,246,2.0,9.0,68,0.00,,,0.02,,2013-03-15 16:22:00,
2013-03-15 11:32:00,68.0,55.0,30.16,SW,221,2.0,7.0,63,0.00,,,0.02,,2013-03-15 16:32:00,
2013-03-15 11:42:00,68.0,55.0,30.16,SW,221,2.0,7.0,63,0.00,,,0.02,,2013-03-15 16:42:00,
2013-03-15 11:52:00,69.0,55.0,30.16,South,181,3.0,12.0,60,0.00,,,0.02,,2013-03-15 16:52:00,
2013-03-15 12:02:00,71.0,54.0,30.14,SSW,210,4.0,13.0,55,0.00,,,0.02,,2013-03-15 17:02:00,
2013-03-15 12:12:00,71.0,54.0,30.14,SSW,210,4.0,13.0,55,0.00,,,0.02,,2013-03-15 17:12:00,
2013-03-15 12:22:00,72.0,54.0,30.14,SSW,211,3.0,9.0,54,0.00,,,0.02,,2013-03-15 17:22:00,
2013-03-15 12:32:00,74.0,55.0,30.14,WSW,258,2.0,10.0,52,0.00,,,0.02,,2013-03-15 17:32:00,
2013-03-15 12:42:00,74.0,55.0,30.14,WSW,258,2.0,10.0,52,0.00,,,0.02,,2013-03-15 17:42:00,
2013-03-15 12:52:00,74.0,54.0,30.13,SSE,153,2.0,7.0,50,0.00,,,0.02,,2013-03-15 17:52:00,
2013-03-15 13:02:00,74.0,53.0,30.13,South,184,3.0,12.0,48,0.00,,,0.02,,2013-03-15 18:02:00,
2013-03-15 13:12:00,74.0,53.0,30.13,South,184,3.0,12.0,48,0.00,,,0.02,,2013-03-15 18:12:00,
2013-03-15 13:22:00,75.0,53.0,30.13,SSW,204,3.0,7.0,47,0.00,,,0.02,,2013-03-15 18:22:00,
2013-03-15 13:32:00,77.0,54.0,30.11,SW,221,2.0,7.0,45,0.00,,,0.02,,2013-03-15 18:32:00,
2013-03-15 13:42:00,77.0,54.0,30.11,SW,221,2.0,7.0,45,0.00,,,0.02,,2013-03-15 18:42:00,
2013-03-15 13:52:00,77.0,51.0,30.11,SSE,165,3.0,9.0,41,0.00,,,0.02,,2013-03-15 18:52:00,
2013-03-15 14:02:00,78.0,52.0,30.09,SSE,159,2.0,7.0,40,0.00,,,0.02,,2013-03-15 19:02:00,
2013-03-15 14:12:00,78.0,52.0,30.09,SSE,159,2.0,7.0,40,0.00,,,0.02,,2013-03-15 19:12:00,
2013-03-15 14:22:00,79.0,52.0,30.08,SW,215,1.0,7.0,39,0.00,,,0.02,,2013-03-15 19:22:00,
2013-03-15 14:32:00,79.0,51.0,30.08,South,176,2.0,12.0,38,0.00,,,0.02,,2013-03-15 19:32:00,
2013-03-15 14:42:00,79.0,51.0,30.08,South,176,2.0,12.0,38,0.00,,,0.02,,2013-03-15 19:42:00,
2013-03-15 14:52:00,79.0,51.0,30.06,South,178,3.0,10.0,38,0.00,,,0.02,,2013-03-15 19:52:00,
2013-03-15 15:02:00,79.0,50.0,30.05,South,185,3.0,9.0,37,0.00,,,0.02,,2013-03-15 20:02:00,
2013-03-15 15:12:00,79.0,50.0,30.05,South,185,3.0,9.0,37,0.00,,,0.02,,2013-03-15 20:12:00,
2013-03-15 15:22:00,79.0,49.0,30.04,SW,223,4.0,9.0,35,0.00,,,0.02,,2013-03-15 20:22:00,
2013-03-15 15:32:00,79.0,50.0,30.03,SSW,204,5.0,13.0,37,0.00,,,0.02,,2013-03-15 20:32:00,
2013-03-15 15:42:00,79.0,50.0,30.03,SSW,204,5.0,13.0,37,0.00,,,0.02,,2013-03-15 20:42:00,
2013-03-15 15:52:00,79.0,50.0,30.02,South,176,3.0,10.0,37,0.00,,,0.02,,2013-03-15 20:52:00,
2013-03-15 16:02:00,79.0,49.0,30.02,ESE,113,2.0,12.0,35,0.00,,,0.02,,2013-03-15 21:02:00,
2013-03-15 16:12:00,79.0,49.0,30.02,ESE,113,2.0,12.0,35,0.00,,,0.02,,2013-03-15 21:12:00,
2013-03-15 16:22:00,79.0,48.0,30.02,SW,217,3.0,12.0,34,0.00,,,0.02,,2013-03-15 21:22:00,
2013-03-15 16:33:00,80.0,50.0,30.00,WSW,241,3.0,9.0,35,0.00,,,0.02,,2013-03-15 21:33:00,
2013-03-15 16:43:00,80.0,50.0,30.00,WSW,241,3.0,9.0,35,0.00,,,0.02,,2013-03-15 21:43:00,
2013-03-15 16:53:00,80.0,50.0,30.00,SW,216,3.0,10.0,35,0.00,,,0.02,,2013-03-15 21:53:00,
2013-03-15 17:13:00,80.0,51.0,29.99,SSW,198,3.0,12.0,36,0.00,,,0.02,,2013-03-15 22:13:00,
2013-03-15 17:22:00,79.0,50.0,29.99,South,191,2.0,12.0,36,0.00,,,0.02,,2013-03-15 22:22:00,
2013-03-15 17:32:00,79.0,49.0,29.99,SSE,168,5.0,12.0,35,0.00,,,0.02,,2013-03-15 22:32:00,
2013-03-15 17:42:00,79.0,49.0,29.99,SSE,168,5.0,12.0,35,0.00,,,0.02,,2013-03-15 22:42:00,
2013-03-15 17:52:00,79.0,49.0,29.98,SSE,162,2.0,13.0,35,0.00,,,0.02,,2013-03-15 22:52:00,
2013-03-15 18:02:00,79.0,49.0,29.98,SSW,195,5.0,13.0,35,0.00,,,0.02,,2013-03-15 23:02:00,
2013-03-15 18:12:00,79.0,49.0,29.98,SSW,195,5.0,13.0,35,0.00,,,0.02,,2013-03-15 23:12:00,
2013-03-15 18:22:00,78.0,49.0,29.98,SSW,204,3.0,10.0,36,0.00,,,0.02,,2013-03-15 23:22:00,
2013-03-15 18:32:00,78.0,48.0,29.97,SSW,200,3.0,12.0,35,0.00,,,0.02,,2013-03-15 23:32:00,
2013-03-15 18:42:00,78.0,48.0,29.97,SSW,200,3.0,12.0,35,0.00,,,0.02,,2013-03-15 23:42:00,
2013-03-15 18:52:00,78.0,48.0,29.97,South,186,3.0,12.0,35,0.00,,,0.02,,2013-03-15 23:52:00,
2013-03-15 19:02:00,77.0,47.0,29.97,South,177,2.0,6.0,35,0.00,,,0.02,,2013-03-16 00:02:00,
2013-03-15 19:12:00,77.0,47.0,29.97,South,177,2.0,6.0,35,0.00,,,0.02,,2013-03-16 00:12:00,
2013-03-15 19:22:00,77.0,47.0,29.97,SW,217,2.0,6.0,35,0.00,,,0.02,,2013-03-16 00:22:00,
2013-03-15 19:32:00,76.0,48.0,29.96,SE,137,1.0,9.0,37,0.00,,,0.02,,2013-03-16 00:32:00,
2013-03-15 19:42:00,76.0,48.0,29.96,SE,137,1.0,9.0,37,0.00,,,0.02,,2013-03-16 00:42:00,
2013-03-15 19:52:00,75.0,48.0,29.96,SE,132,1.0,6.0,38,0.00,,,0.02,,2013-03-16 00:52:00,
2013-03-15 20:02:00,74.0,47.0,29.96,South,190,1.0,5.0,39,0.00,,,0.02,,2013-03-16 01:02:00,
2013-03-15 20:12:00,74.0,47.0,29.96,South,190,1.0,5.0,39,0.00,,,0.02,,2013-03-16 01:12:00,
2013-03-15 20:21:00,73.0,47.0,29.96,South,169,1.0,6.0,40,0.00,,,0.02,,2013-03-16 01:21:00,
2013-03-15 20:32:00,72.0,47.0,29.96,South,171,1.0,6.0,41,0.00,,,0.02,,2013-03-16 01:32:00,
2013-03-15 20:42:00,72.0,47.0,29.96,South,171,1.0,6.0,41,0.00,,,0.02,,2013-03-16 01:42:00,
2013-03-15 20:52:00,71.0,46.0,29.95,SE,134,1.0,7.0,41,0.00,,,0.02,,2013-03-16 01:52:00,
2013-03-15 21:02:00,71.0,46.0,29.96,SSE,149,1.0,3.0,41,0.00,,,0.02,,2013-03-16 02:02:00,
2013-03-15 21:12:00,71.0,46.0,29.96,SSE,149,1.0,3.0,41,0.00,,,0.02,,2013-03-16 02:12:00,
2013-03-15 21:22:00,70.0,45.0,29.96,SSE,154,1.0,3.0,41,0.00,,,0.02,,2013-03-16 02:22:00,
2013-03-15 21:32:00,69.0,46.0,29.96,SSE,163,0.0,2.0,43,0.00,,,0.02,,2013-03-16 02:32:00,
2013-03-15 21:42:00,69.0,46.0,29.96,SSE,163,0.0,2.0,43,0.00,,,0.02,,2013-03-16 02:42:00,
2013-03-15 21:52:00,69.0,46.0,29.96,SSE,163,1.0,3.0,44,0.00,,,0.02,,2013-03-16 02:52:00,
2013-03-15 22:02:00,68.0,46.0,29.96,SSE,148,0.0,3.0,45,0.00,,,0.02,,2013-03-16 03:02:00,
2013-03-15 22:12:00,68.0,46.0,29.96,SSE,148,0.0,3.0,45,0.00,,,0.02,,2013-03-16 03:12:00,
2013-03-15 22:22:00,67.0,46.0,29.96,SSE,160,1.0,3.0,46,0.00,,,0.02,,2013-03-16 03:22:00,
2013-03-15 22:32:00,67.0,47.0,29.96,South,188,1.0,3.0,48,0.00,,,0.02,,2013-03-16 03:32:00,
2013-03-15 22:43:00,67.0,47.0,29.96,South,188,1.0,3.0,48,0.00,,,0.02,,2013-03-16 03:43:00,
2013-03-15 22:52:00,67.0,47.0,29.96,SSE,157,1.0,6.0,49,0.00,,,0.02,,2013-03-16 03:52:00,
2013-03-15 23:02:00,67.0,48.0,29.95,SSE,156,1.0,5.0,51,0.00,,,0.02,,2013-03-16 04:02:00,
2013-03-15 23:12:00,67.0,48.0,29.95,SSE,156,1.0,5.0,51,0.00,,,0.02,,2013-03-16 04:12:00,
2013-03-15 23:22:00,66.0,48.0,29.95,SSE,165,2.0,6.0,52,0.00,,,0.02,,2013-03-16 04:22:00,
2013-03-15 23:32:00,67.0,50.0,29.94,SSE,166,2.0,9.0,54,0.00,,,0.02,,2013-03-16 04:32:00,
2013-03-15 23:42:00,67.0,50.0,29.94,SSE,166,2.0,9.0,54,0.00,,,0.02,,2013-03-16 04:42:00,
2013-03-15 23:52:00,67.0,50.0,29.94,South,183,2.0,9.0,54,0.00,,,0.02,,2013-03-16 04:52:00,